Weather History for Marianna, FL

Change the Weather History Date:

Saturday, February 23, 2013

  Actual Average Record
Temperature  
Mean Temperature 64 °F 56 °F  
Max Temperature 71 °F 68 °F 78 °F (2011)
Min Temperature 56 °F 44 °F 30 °F (1999)
Degree Days  
Heating Degree Days 1    
Month to date heating degree days 241  
Since 1 July heating degree days 967  
Cooling Degree Days 0    
Month to date cooling degree days 6  
Year to date cooling degree days 59  
Growing Degree Days 13 (Base 50)    
Moisture  
Dew Point 64 °F    
Average Humidity 94    
Maximum Humidity 100    
Minimum Humidity 87    
Precipitation  
Precipitation 1.61 in 0.21 in 1.61 in (2013)
Month to date precipitation 7.07 3.99  
Year to date precipitation 8.03 9.03  
Sea Level Pressure  
Sea Level Pressure 29.88 in    
Wind  
Wind Speed 6 mph (West)    
Max Wind Speed 16 mph    
Max Gust Speed 23 mph    
Visibility 5 miles    
Events Fog , Rain , Thunderstorm    
T = Trace of Precipitation, MM = Missing Value Source: NWS Daily Summary

Daily Weather History Graph

Daily Weather History Graph

Search for Another Location

Airport:

Trip Planner

Search our weather history database for the weather conditions in past years. The results will help you decide how hot, cold, wet, or windy it might be!

Date:

Astronomy

Feb. 23, 2013 Rise Set
Actual Time 6:13 AM CST 5:35 PM CST
Civil Twilight 5:49 AM CST 5:59 PM CST
Nautical Twilight 5:20 AM CST 6:27 PM CST
Astronomical Twilight 4:53 AM CST 6:55 PM CST
Moon 3:48 PM CST (2/23) 4:30 AM CST (2/23)
Length of Visible Light 12h 10m
Length of Day
11h 21m
Waxing Gibbous, 95% of the Moon is Illuminated
Feb 23
Waxing Gibbous
Feb 25
Full
Mar 4
Last Quarter
Mar 11
New
Mar 19
First Quarter

Hourly Weather History & Observations

Time (CST) Temp. Dew Point Humidity Pressure Visibility Wind Dir Wind Speed Gust Speed Precip Events Conditions
12:53 AM 66.0 °F 64.9 °F 96% 29.90 in 8.0 mi South 6.9 mph - N/A   Overcast
1:10 AM 66.2 °F 64.4 °F 94% 29.90 in 4.0 mi SSW 8.1 mph - N/A   Overcast
1:32 AM 66.2 °F 66.2 °F 100% 29.88 in 2.0 mi South 5.8 mph - N/A   Overcast
1:41 AM 66.2 °F 66.2 °F 100% 29.88 in 1.5 mi South 6.9 mph - N/A   Overcast
1:53 AM 66.9 °F 66.9 °F 100% 29.87 in 2.0 mi South 6.9 mph - N/A   Overcast
2:38 AM 68.0 °F 68.0 °F 100% 29.85 in 5.0 mi SSW 6.9 mph - N/A   Overcast
2:53 AM 69.1 °F 68.0 °F 96% 29.86 in 5.0 mi SW 9.2 mph - N/A   Overcast
3:26 AM 69.8 °F 68.0 °F 94% 29.86 in 6.0 mi SSW 5.8 mph - N/A   Overcast
3:43 AM 69.8 °F 69.8 °F 100% 29.87 in 6.0 mi SW 6.9 mph - N/A   Overcast
3:53 AM 70.0 °F 69.1 °F 97% 29.86 in 6.0 mi SSW 6.9 mph - N/A   Overcast
4:53 AM 70.0 °F 69.1 °F 97% 29.87 in 4.0 mi SSW 9.2 mph - N/A   Overcast
5:53 AM 70.0 °F 69.1 °F 97% 29.86 in 6.0 mi SSW 10.4 mph - N/A   Overcast
6:53 AM 71.1 °F 69.1 °F 93% 29.86 in 7.0 mi South 11.5 mph - 0.00 in   Overcast
7:32 AM 71.6 °F 69.8 °F 94% 29.88 in 7.0 mi South 11.5 mph - N/A Thunderstorm Overcast
7:49 AM 71.6 °F 69.8 °F 94% 29.90 in 7.0 mi West 15.0 mph 20.7 mph N/A   Overcast
7:53 AM 66.9 °F 64.9 °F 93% 29.90 in 7.0 mi NNW 15.0 mph - 0.00 in Rain Light Rain
8:00 AM 64.4 °F 62.6 °F 94% 29.90 in 7.0 mi North 10.4 mph - 0.01 in Rain Light Rain
8:10 AM 64.4 °F 62.6 °F 94% 29.91 in 2.5 mi Variable 3.5 mph - 0.08 in Rain Heavy Rain
8:22 AM 64.4 °F 62.6 °F 94% 29.93 in 1.2 mi West 9.2 mph - 0.16 in Rain Heavy Rain
8:31 AM 64.4 °F 62.6 °F 94% 29.92 in 1.2 mi WNW 6.9 mph - 0.31 in Rain Heavy Rain
8:39 AM 62.6 °F 62.6 °F 100% 29.92 in 0.5 mi NW 5.8 mph - 0.47 in Fog , Rain Heavy Rain
8:46 AM 62.6 °F 62.6 °F 100% 29.93 in 2.0 mi West 3.5 mph - 0.49 in Rain Rain
8:53 AM 64.0 °F 62.1 °F 93% 29.93 in 1.5 mi South 4.6 mph - 0.53 in Rain Rain
8:59 AM 64.4 °F 62.6 °F 94% 29.93 in 2.5 mi Calm Calm - 0.03 in Rain Heavy Rain
9:06 AM 64.4 °F 62.6 °F 94% 29.93 in 1.2 mi Variable 3.5 mph - 0.10 in Rain Heavy Rain
9:29 AM 62.6 °F 62.6 °F 100% 29.93 in 1.5 mi Calm Calm - 0.22 in Rain Heavy Rain
9:40 AM 64.4 °F 62.6 °F 94% 29.93 in 2.5 mi Calm Calm - 0.26 in Rain Rain
9:51 AM 64.4 °F 62.6 °F 94% 29.94 in 1.8 mi SW 3.5 mph - 0.31 in Rain Rain
9:53 AM 64.0 °F 62.1 °F 93% 29.94 in 2.0 mi SW 3.5 mph - 0.32 in Rain Rain
10:03 AM 64.4 °F 62.6 °F 94% 29.94 in 3.0 mi WSW 3.5 mph - 0.02 in Rain Rain
10:08 AM 64.4 °F 62.6 °F 94% 29.94 in 1.8 mi WNW 5.8 mph - 0.08 in Rain Heavy Rain
10:18 AM 64.4 °F 62.6 °F 94% 29.94 in 1.8 mi Calm Calm - 0.13 in Rain Light Rain
10:20 AM 64.4 °F 62.6 °F 94% 29.94 in 4.0 mi SSW 4.6 mph - 0.13 in Rain Light Rain
10:35 AM 64.4 °F 62.6 °F 94% 29.92 in 6.0 mi Calm Calm - 0.14 in Rain Light Rain
10:53 AM 64.9 °F 63.0 °F 93% 29.90 in 10.0 mi SSW 5.8 mph - 0.14 in   Overcast
11:53 AM 68.0 °F 64.9 °F 90% 29.88 in 10.0 mi WNW 5.8 mph - 0.03 in   Overcast
12:13 PM 69.8 °F 66.2 °F 88% 29.88 in 10.0 mi NW 5.8 mph - N/A   Overcast
12:53 PM 69.1 °F 66.0 °F 90% 29.86 in 10.0 mi WNW 4.6 mph - N/A   Overcast
1:22 PM 69.8 °F 66.2 °F 88% 29.85 in 10.0 mi West 4.6 mph - N/A   Overcast
1:53 PM 68.0 °F 66.0 °F 93% 29.85 in 10.0 mi Calm Calm - 0.00 in Rain Light Rain
2:19 PM 68.0 °F 66.2 °F 94% 29.83 in 5.0 mi Calm Calm - 0.03 in Rain , Thunderstorm Light Rain
2:48 PM 66.2 °F 66.2 °F 100% 29.83 in 1.5 mi NW 5.8 mph - 0.18 in Rain , Thunderstorm Heavy Thunderstorms and Rain
2:51 PM 66.2 °F 66.2 °F 100% 29.83 in 1.0 mi Calm Calm - 0.23 in Rain , Thunderstorm Heavy Rain
2:53 PM 66.9 °F 66.0 °F 97% 29.81 in 1.0 mi Calm Calm - 0.25 in Rain , Thunderstorm Heavy Rain
3:00 PM 66.2 °F 66.2 °F 100% 29.81 in 0.8 mi South 8.1 mph - 0.12 in Rain , Thunderstorm Heavy Thunderstorms and Rain
3:08 PM 66.2 °F 64.4 °F 94% 29.82 in 1.8 mi West 10.4 mph - 0.16 in Rain , Thunderstorm Thunderstorms and Rain
3:11 PM 66.2 °F 64.4 °F 94% 29.82 in 4.0 mi NW 6.9 mph - 0.16 in Rain , Thunderstorm Light Thunderstorms and Rain
3:23 PM 66.2 °F 64.4 °F 94% 29.82 in 10.0 mi North 4.6 mph - 0.17 in Rain Light Rain
3:33 PM 66.2 °F 64.4 °F 94% 29.84 in 10.0 mi Calm Calm - 0.17 in Rain Light Rain
3:53 PM 66.0 °F 64.0 °F 93% 29.84 in 7.0 mi North 3.5 mph - 0.20 in Rain Light Rain
4:10 PM 64.4 °F 64.4 °F 100% 29.85 in 7.0 mi NNW 3.5 mph - 0.03 in Rain Light Rain
4:53 PM 64.9 °F 64.0 °F 97% 29.87 in 7.0 mi WNW 3.5 mph - 0.09 in Rain Light Rain
5:10 PM 64.4 °F 62.6 °F 94% 29.88 in 10.0 mi WNW 8.1 mph - 0.01 in Rain Light Rain
5:53 PM 62.1 °F 61.0 °F 96% 29.86 in 10.0 mi Variable 3.5 mph - 0.03 in Rain Light Rain
6:53 PM 63.0 °F 61.0 °F 93% 29.82 in 10.0 mi Calm Calm - 0.02 in   Overcast
7:06 PM 62.6 °F 60.8 °F 94% 29.82 in 10.0 mi Calm Calm - N/A   Mostly Cloudy
7:15 PM 62.6 °F 60.8 °F 94% 29.83 in 10.0 mi Calm Calm - N/A   Overcast
7:53 PM 63.0 °F 61.0 °F 93% 29.84 in 10.0 mi NW 3.5 mph - N/A   Overcast
8:53 PM 63.0 °F 61.0 °F 93% 29.88 in 10.0 mi NW 11.5 mph - N/A   Overcast
9:06 PM 62.6 °F 60.8 °F 94% 29.89 in 10.0 mi NW 9.2 mph - N/A   Overcast
9:45 PM 60.8 °F 60.8 °F 100% 29.89 in 0.5 mi NW 8.1 mph - N/A Fog Fog
9:53 PM 60.1 °F 60.1 °F 100% 29.90 in 0.5 mi NW 9.2 mph - N/A Fog Fog
10:23 PM 59.0 °F 59.0 °F 100% 29.92 in 1.5 mi NNW 10.4 mph - N/A   Overcast
10:53 PM 57.0 °F 57.0 °F 100% 29.93 in 1.8 mi NW 8.1 mph - N/A   Overcast
11:10 PM 57.2 °F 55.4 °F 94% 29.93 in 2.0 mi NNW 9.2 mph - N/A   Overcast
11:40 PM 55.4 °F 55.4 °F 100% 29.93 in 3.0 mi NNW 3.5 mph - N/A   Overcast
11:53 PM 55.9 °F 55.9 °F 100% 29.94 in 2.5 mi NNW 4.6 mph - N/A   Overcast